Location: Casa Rossa
(45.2389°N, 12.2056°E)
Time: 22:28:46
(UTC+00:00)

CZ-4C R/B - Pass Details

Date: 14 July 2020
Orbit: 409 x 491 km, 97.7° (Epoch: 14 August)

Event Time Altitude Azimuth Distance (km) Brightness Sun altitude
Rises 02:22:11 0° 157° (SSE) 2,381 6.3 -11.0°
Reaches altitude 10° 02:24:12 10° 153° (SSE) 1,509 5.4 -10.8°
Maximum altitude 02:27:21 56° 75° (ENE) 507 3.5 -10.4°
Drops below altitude 10° 02:30:29 10° 356° (N) 1,496 6.2 -10.0°
Sets 02:32:30 0° 352° (N) 2,359 7.1 -9.7°
